GW2984 Weather Reports


time (UTC)temp
C
wind
direction
speed
KPH
gust
KPH
rain 1hr
cm
rain 24hr
cm
rain mn
cm
humidity
%
barometer
mb
20260905224550 30 0.0 0.0 0.00 0.15 0.15 63 1012.4
20260905224027 31 0.0 0.0 0.00 0.15 0.15 62 1012.2
20260905223529 31 0.0 0.0 0.00 0.15 0.15 60 1012.2
20260905223041 31 0.0 0.0 0.00 0.15 0.15 61 1011.9
20260905222526 31 0.0 0.0 0.00 0.15 0.15 61 1011.6
20260905222026 31 0.0 0.0 0.00 0.15 0.15 60 1012.0
20260905221543 32 0.0 0.0 0.00 0.15 0.15 61 1012.2
20260905221027 32 0.0 0.0 0.00 0.15 0.15 62 1012.0
20260905220528 32 0.0 0.0 0.00 0.15 0.15 62 1011.6
20260905220043 32 0.0 0.0 0.00 0.15 0.15 62 1012.1
20260905215529 32 0.0 0.0 0.00 0.15 0.15 61 1012.1
20260905215029 32 0.0 0.0 0.00 0.15 0.15 62 1012.2
20260905214547 32 0.0 0.0 0.00 0.15 0.15 62 1011.7
20260905214026 32 0.0 0.0 0.00 0.15 0.15 62 1011.6
20260905213529 32 0.0 0.0 0.00 0.15 0.15 61 1011.7
20260905213043 32 0.0 0.0 0.00 0.15 0.15 62 1011.9
20260905212527 32 0.0 0.0 0.00 0.15 0.15 63 1012.2
20260905212030 32 0.0 0.0 0.00 0.15 0.15 64 1012.1
20260905211544 32 0.0 0.0 0.00 0.15 0.15 64 1012.0
20260905211027 31 0.0 0.0 0.00 0.15 0.15 67 1011.9
20260905210527 31 0.0 0.0 0.00 0.15 0.15 69 1012.0
20260905210049 31 0.0 0.0 0.00 0.15 0.15 67 1012.2
20260905205526 31 0.0 0.0 0.00 0.15 0.15 65 1012.1
20260905205026 31 0.0 0.0 0.00 0.15 0.15 64 1012.2
20260905204545 32 0.0 0.0 0.00 0.15 0.15 64 1012.2
20260905204026 32 0.0 0.0 0.00 0.15 0.15 65 1012.3
20260905203526 32 0.0 0.0 0.00 0.15 0.15 65 1012.5
20260905203044 32 0.0 0.0 0.00 0.15 0.15 64 1012.3
20260905202529 32 0.0 0.0 0.00 0.15 0.15 64 1012.3
20260905202026 32 0.0 0.0 0.00 0.15 0.15 64 1012.4
20260905201543 32 0.0 0.0 0.00 0.15 0.15 63 1012.5
20260905201033 32 0.0 0.0 0.00 0.15 0.15 61 1012.5
20260905200526 32 0.0 0.0 0.00 0.15 0.15 60 1012.6
20260905200049 33 0.0 0.0 0.00 0.15 0.15 58 1012.5
20260905195534 33 0.0 0.0 0.00 0.15 0.15 58 1012.5
20260905195029 33 0.0 0.0 0.00 0.15 0.15 63 1012.5
20260905194547 33 0.0 0.0 0.00 0.15 0.15 61 1012.6
20260905194026 32 0.0 0.0 0.00 0.15 0.15 61 1012.6
20260905193526 32 0.0 0.0 0.00 0.15 0.15 64 1012.6
20260905193045 32 0.0 0.0 0.00 0.15 0.15 61 1012.8
20260905192530 32 0.0 0.0 0.00 0.15 0.15 60 1012.8
20260905192030 32 0.0 0.0 0.00 0.15 0.15 60 1012.8
20260905191543 33 0.0 0.0 0.00 0.15 0.15 61 1012.8
20260905191027 33 0.0 0.0 0.00 0.15 0.15 60 1012.9
20260905190526 32 0.0 0.0 0.00 0.15 0.15 61 1012.9
20260905190052 32 0.0 0.0 0.00 0.15 0.15 60 1013.0
20260905185527 32 0.0 0.0 0.00 0.15 0.15 62 1013.1
20260905185026 32 0.0 0.0 0.00 0.15 0.15 59 1013.2
20260905184553 32 0.0 0.0 0.00 0.15 0.15 61 1013.2
20260905184026 32 0.0 0.0 0.00 0.15 0.15 60 1013.2
20260905183527 32 0.0 0.0 0.00 0.15 0.15 59 1013.3
20260905183048 32 0.0 0.0 0.00 0.15 0.15 63 1013.3
20260905182528 32 0.0 0.0 0.00 0.15 0.15 62 1013.5
20260905182028 32 0.0 0.0 0.00 0.15 0.15 63 1013.6
20260905181556 31 0.0 0.0 0.00 0.15 0.15 62 1013.6
20260905181027 31 0.0 0.0 0.00 0.15 0.15 63 1013.7
20260905180527 31 0.0 0.0 0.00 0.15 0.15 62 1013.7
20260905180048 31 0.0 0.0 0.00 0.15 0.15 65 1013.7
20260905175528 30 0.0 0.0 0.00 0.15 0.15 67 1013.7
20260905175030 30 0.0 0.0 0.00 0.15 0.15 66 1013.8
20260905174546 30 0.0 0.0 0.00 0.15 0.15 68 1013.8
20260905174026 29 0.0 0.0 0.00 0.15 0.15 70 1013.9
20260905173526 29 0.0 0.0 0.00 0.15 0.15 71 1013.9
20260905173042 28 0.0 0.0 0.00 0.15 0.15 71 1014.0
20260905172526 28 0.0 0.0 0.00 0.15 0.15 72 1014.0
20260905172030 28 0.0 0.0 0.00 0.15 0.15 74 1014.0
20260905171545 27 0.0 0.0 0.00 0.15 0.15 75 1014.2
20260905171025 27 0.0 0.0 0.00 0.15 0.15 71 1014.3
20260905170527 26 0.0 0.0 0.00 0.15 0.15 75 1014.3
20260905170043 26 0.0 0.0 0.03 0.15 0.15 77 1014.4
20260905165526 26 0.0 0.0 0.03 0.15 0.15 78 1014.5
20260905165026 25 0.0 0.0 0.03 0.15 0.15 78 1014.6
20260905164543 25 0.0 0.0 0.03 0.15 0.15 78 1014.6
20260905164027 25 0.0 0.0 0.03 0.15 0.15 79 1014.7
20260905163528 25 0.0 0.0 0.03 0.15 0.15 80 1014.7
20260905163047 25 0.0 0.0 0.03 0.15 0.15 81 1014.8
20260905162527 24 0.0 0.0 0.10 0.15 0.15 81 1014.9
20260905162025 24 0.0 0.0 0.15 0.15 0.15 82 1015.0
20260905161544 24 0.0 0.0 0.15 0.15 0.15 82 1015.0
20260905161027 24 0.0 0.0 0.15 0.15 0.15 82 1014.9
20260905160526 23 0.0 0.0 0.15 0.15 0.15 82 1015.1
20260905160044 23 0.0 0.0 0.13 0.13 0.13 81 1015.0
20260905155529 23 0.0 0.0 0.13 0.13 0.13 81 1015.0
20260905155027 23 0.0 0.0 0.13 0.13 0.13 80 1015.1
20260905154549 24 0.0 0.0 0.13 0.13 0.13 80 1015.1
20260905154028 24 0.0 0.0 0.13 0.13 0.13 78 1015.0
20260905153527 25 0.0 0.0 0.13 0.13 0.13 77 1015.1
20260905153055 25 0.0 0.0 0.13 0.13 0.13 76 1015.0
20260905152527 26 0.0 0.0 0.03 0.03 0.03 74 1015.1
20260905152026 26 0.0 0.0 0.00 0.00 0.00 72 1015.0
20260905151543 26 0.0 0.0 0.00 0.00 0.00 71 1015.0
20260905151028 25 0.0 0.0 0.00 0.00 0.00 72 1014.9
20260905150527 25 0.0 0.0 0.00 0.00 0.00 74 1015.1
20260905150054 25 0.0 0.0 0.00 0.00 0.00 73 1015.0
20260905145527 25 0.0 0.0 0.00 0.00 0.00 73 1014.9
20260905145027 25 0.0 0.0 0.00 0.00 0.00 72 1014.9
20260905144548 25 0.0 0.0 0.00 0.00 0.00 73 1014.9
20260905144026 25 0.0 0.0 0.00 0.00 0.00 73 1014.9
20260905143527 24 0.0 0.0 0.00 0.00 0.00 74 1014.9
20260905143044 24 0.0 0.0 0.00 0.00 0.00 73 1014.9
20260905142530 24 0.0 0.0 0.00 0.00 0.00 74 1014.9
20260905142026 24 0.0 0.0 0.00 0.00 0.00 74 1015.0
20260905141553 24 0.0 0.0 0.00 0.00 0.00 74 1014.9
20260905141027 24 0.0 0.0 0.00 0.00 0.00 75 1015.0
20260905140527 23 0.0 0.0 0.00 0.00 0.00 75 1014.9
20260905140046 23 0.0 0.0 0.00 0.00 0.00 75 1015.0
20260905135526 23 0.0 0.0 0.00 0.00 0.00 75 1015.0
20260905135026 23 0.0 0.0 0.00 0.00 0.00 75 1015.1
20260905134542 23 0.0 0.0 0.00 0.00 0.00 76 1015.3
20260905134026 23 0.0 0.0 0.00 0.00 0.00 76 1015.1
20260905133525 23 0.0 0.0 0.00 0.00 0.00 76 1015.2
20260905133049 23 0.0 0.0 0.00 0.00 0.00 76 1015.3
20260905132527 23 0.0 0.0 0.00 0.00 0.00 76 1015.2
20260905132026 23 0.0 0.0 0.00 0.00 0.00 76 1015.3
20260905131559 23 0.0 0.0 0.00 0.00 0.00 77 1015.3
20260905131027 23 0.0 0.0 0.00 0.00 0.00 77 1015.4
20260905130526 22 0.0 0.0 0.00 0.00 0.00 77 1015.3
20260905130047 22 0.0 0.0 0.00 0.00 0.00 78 1015.2
20260905125526 22 0.0 0.0 0.00 0.00 0.00 77 1015.2
20260905125028 22 0.0 0.0 0.00 0.00 0.00 78 1015.1
20260905124542 22 0.0 0.0 0.00 0.00 0.00 78 1015.1
20260905124028 22 0.0 0.0 0.00 0.00 0.00 78 1015.1
20260905123526 22 0.0 0.0 0.00 0.00 0.00 78 1015.0
20260905123049 22 0.0 0.0 0.00 0.00 0.00 78 1015.1
20260905122530 22 0.0 0.0 0.00 0.00 0.00 78 1015.0
20260905122025 22 0.0 0.0 0.00 0.00 0.00 78 1014.9
20260905121544 22 0.0 0.0 0.00 0.00 0.00 78 1015.0
20260905121026 22 0.0 0.0 0.00 0.00 0.00 78 1015.1
20260905120529 22 0.0 0.0 0.00 0.00 0.00 78 1015.0
20260905120044 22 0.0 0.0 0.00 0.00 0.00 79 1015.0
20260905115530 22 0.0 0.0 0.00 0.00 0.00 79 1015.1
20260905115027 22 0.0 0.0 0.00 0.00 0.00 79 1014.9
20260905114548 22 0.0 0.0 0.00 0.00 0.00 79 1014.9
20260905114028 22 0.0 0.0 0.00 0.00 0.00 79 1015.0
20260905113529 22 0.0 0.0 0.00 0.00 0.00 79 1015.0
20260905113044 22 0.0 0.0 0.00 0.00 0.00 79 1015.0
20260905112527 22 0.0 0.0 0.00 0.00 0.00 79 1015.0
20260905112026 22 0.0 0.0 0.00 0.00 0.00 79 1015.0
20260905111608 22 0.0 0.0 0.00 0.00 0.00 79 1015.1
20260905111025 22 0.0 0.0 0.00 0.00 0.00 79 1014.9
20260905110554 22 0.0 0.0 0.00 0.00 0.00 79 1015.1
20260905110041 22 0.0 0.0 0.00 0.00 0.00 78 1014.9
20260905105526 22 0.0 0.0 0.00 0.00 0.00 79 1014.9
20260905105039 23 0.0 0.0 0.00 0.00 0.00 79 1014.9
20260905104547 23 0.0 0.0 0.00 0.00 0.00 79 1015.0
20260905104027 23 0.0 0.0 0.00 0.00 0.00 80 1014.9
20260905103529 23 0.0 0.0 0.00 0.00 0.00 81 1014.7
20260905103045 24 0.0 0.0 0.00 0.00 0.00 81 1014.6
20260905102525 24 0.0 0.0 0.00 0.00 0.00 82 1014.6
20260905102026 24 0.0 0.0 0.00 0.00 0.00 82 1014.1
20260905101548 24 0.0 0.0 0.00 0.00 0.00 82 1013.7
20260905101025 24 0.0 0.0 0.00 0.00 0.00 82 1013.6
20260905100529 24 0.0 0.0 0.00 0.00 0.00 82 1013.7
20260905100042 24 0.0 0.0 0.00 0.00 0.00 82 1013.6
20260905095528 24 0.0 0.0 0.00 0.00 0.00 81 1013.6
20260905095026 25 0.0 0.0 0.00 0.00 0.00 81 1013.5
20260905094550 25 0.0 0.0 0.00 0.00 0.00 81 1013.5
20260905094027 25 0.0 0.0 0.00 0.00 0.00 81 1013.5
20260905093528 25 0.0 0.0 0.00 0.00 0.00 81 1013.4
20260905093044 25 0.0 0.0 0.00 0.00 0.00 81 1013.4
20260905092525 25 0.0 0.0 0.00 0.00 0.00 81 1013.5
20260905092028 25 0.0 0.0 0.00 0.00 0.00 81 1013.5
20260905091542 25 0.0 0.0 0.00 0.00 0.00 81 1013.5
20260905091027 25 0.0 0.0 0.00 0.00 0.00 81 1013.4
20260905090529 25 0.0 0.0 0.00 0.00 0.00 81 1013.4
20260905090046 25 0.0 0.0 0.00 0.00 0.00 81 1013.4
20260905085527 25 0.0 0.0 0.00 0.00 0.00 81 1013.5
20260905085026 25 0.0 0.0 0.00 0.00 0.00 81 1013.4
20260905084543 25 0.0 0.0 0.00 0.00 0.00 81 1013.5
20260905084026 25 0.0 0.0 0.00 0.00 0.00 80 1013.5
20260905083529 25 0.0 0.0 0.00 0.00 0.00 80 1013.5
20260905083041 25 0.0 0.0 0.00 0.00 0.00 80 1013.5
20260905082525 25 0.0 0.0 0.00 0.00 0.00 80 1013.5
20260905082027 25 0.0 0.0 0.00 0.00 0.00 80 1013.4
20260905081551 25 0.0 0.0 0.00 0.00 0.00 80 1013.4
20260905081025 25 0.0 0.0 0.00 0.00 0.00 80 1013.5
20260905080526 25 0.0 0.0 0.00 0.00 0.00 80 1013.5
20260905080048 25 0.0 0.0 0.00 0.00 0.00 80 1013.3
20260905075526 25 0.0 0.0 0.00 0.00 0.00 80 1013.2
20260905075026 25 0.0 0.0 0.00 0.00 0.00 80 1013.0
20260905074551 25 0.0 0.0 0.00 0.00 0.00 80 1012.9
20260905074026 25 0.0 0.0 0.00 0.00 0.00 80 1012.7
20260905073528 25 0.0 0.0 0.00 0.00 0.00 80 1012.7
20260905073057 25 0.0 0.0 0.00 0.00 0.00 80 1012.8
20260905072526 25 0.0 0.0 0.00 0.00 0.00 81 1012.7
20260905072025 25 0.0 0.0 0.00 0.00 0.00 81 1012.6
20260905071545 25 0.0 0.0 0.00 0.00 0.00 81 1012.5
20260905071026 25 0.0 0.0 0.00 0.00 0.00 81 1012.6
20260905070526 25 0.0 0.0 0.00 0.00 0.00 81 1012.8
20260905070050 25 0.0 0.0 0.00 0.00 0.00 81 1013.0
20260905065526 25 0.0 0.0 0.00 0.00 0.00 81 1012.8
20260905065027 25 0.0 0.0 0.00 0.00 0.00 81 1012.9
20260905064029 25 0.0 0.0 0.00 0.00 0.00 81 1013.0
20260905063525 25 0.0 0.0 0.00 0.00 0.00 81 1013.1
20260905063054 25 0.0 0.0 0.00 0.00 0.00 81 1013.2
20260905062528 25 0.0 0.0 0.00 0.00 0.00 81 1013.3
20260905062025 25 0.0 0.0 0.00 0.00 0.00 81 1013.4
20260905061541 25 0.0 0.0 0.00 0.00 0.00 81 1013.5
20260905061026 25 0.0 0.0 0.00 0.00 0.00 81 1013.6
20260905060526 26 0.0 0.0 0.00 0.00 0.00 81 1013.6
20260905060052 26 0.0 0.0 0.00 0.00 0.00 81 1013.6
20260905055525 26 0.0 0.0 0.00 0.00 0.00 81 1013.6
20260905055026 26 0.0 0.0 0.00 0.00 0.00 81 1013.7
20260905054548 26 0.0 0.0 0.00 0.00 0.00 81 1013.6
20260905054026 26 0.0 0.0 0.00 0.00 0.00 81 1013.6
20260905053529 26 0.0 0.0 0.00 0.00 0.00 81 1013.8
20260905053112 26 0.0 0.0 0.00 0.00 0.00 81 1013.8
20260905052526 26 0.0 0.0 0.00 0.00 0.00 80 1013.8
20260905052025 26 0.0 0.0 0.00 0.00 0.00 80 1013.8
20260905051539 26 0.0 0.0 0.00 0.00 0.00 80 1014.0
20260905051028 26 0.0 0.0 0.00 0.00 0.00 80 1013.9
20260905050526 26 0.0 0.0 0.00 0.00 0.00 80 1014.0
20260905050045 26 0.0 0.0 0.00 0.00 0.00 80 1013.9
20260905045525 26 0.0 0.0 0.00 0.00 0.00 80 1014.0
20260905045027 26 0.0 0.0 0.00 0.00 0.00 80 1014.0
20260905044548 26 0.0 0.0 0.00 0.00 0.00 80 1014.1
20260905044025 26 0.0 0.0 0.00 0.00 0.00 80 1014.0
20260905043525 26 0.0 0.0 0.00 0.00 0.00 80 1014.0
20260905043045 26 0.0 0.0 0.00 0.00 0.00 80 1014.2
20260905042525 26 0.0 0.0 0.00 0.00 0.00 80 1014.3
20260905042025 26 0.0 0.0 0.00 0.00 0.00 80 1014.3
20260905041546 26 0.0 0.0 0.00 0.00 0.00 80 1014.3
20260905041028 26 0.0 0.0 0.00 0.00 0.00 79 1014.2
20260905040528 26 0.0 0.0 0.00 0.00 0.00 79 1014.2
20260905040045 26 0.0 0.0 0.00 0.00 0.00 79 1014.3
20260905035525 27 0.0 0.0 0.00 0.00 0.00 79 1014.3
20260905035025 27 0.0 0.0 0.00 0.00 0.00 79 1014.3
20260905034543 27 0.0 0.0 0.00 0.00 0.00 79 1014.3
20260905034025 27 0.0 0.0 0.00 0.00 0.00 79 1014.2
20260905033526 27 0.0 0.0 0.00 0.00 0.00 79 1014.4
20260905033055 27 0.0 0.0 0.00 0.00 0.00 79 1014.4
20260905032527 27 0.0 0.0 0.00 0.00 0.00 78 1014.4
20260905032025 27 0.0 0.0 0.00 0.00 0.00 78 1014.5
20260905031544 27 0.0 0.0 0.00 0.00 0.00 78 1014.6
20260905031027 27 0.0 0.0 0.00 0.00 0.00 78 1014.5
20260905030527 27 0.0 0.0 0.00 0.00 0.00 78 1014.5
20260905030044 27 0.0 0.0 0.00 0.00 0.00 78 1014.4
20260905025529 27 0.0 0.0 0.00 0.00 0.00 78 1014.4
20260905025026 27 0.0 0.0 0.00 0.00 0.00 77 1014.3
20260905024543 27 0.0 0.0 0.00 0.00 0.00 78 1014.3
20260905024029 27 0.0 0.0 0.00 0.00 0.00 77 1014.3
20260905023526 28 0.0 0.0 0.00 0.00 0.00 77 1014.2
20260905023044 28 0.0 0.0 0.00 0.00 0.00 77 1014.0
20260905022527 28 0.0 0.0 0.00 0.00 0.00 77 1014.0
20260905022026 28 0.0 0.0 0.00 0.00 0.00 76 1014.1
20260905021541 28 0.0 0.0 0.00 0.00 0.00 76 1014.1
20260905021028 28 0.0 0.0 0.00 0.00 0.00 76 1014.0
20260905020526 28 0.0 0.0 0.00 0.00 0.00 76 1014.1
20260905020049 28 0.0 0.0 0.00 0.00 0.00 76 1014.1
20260905015525 28 0.0 0.0 0.00 0.00 0.00 75 1014.0
20260905015030 28 0.0 0.0 0.00 0.00 0.00 75 1014.0
20260905014543 28 0.0 0.0 0.00 0.00 0.00 75 1013.9
20260905014024 29 0.0 0.0 0.00 0.00 0.00 74 1014.0
20260905013526 29 0.0 0.0 0.00 0.00 0.00 74 1013.9
20260905013048 29 0.0 0.0 0.00 0.00 0.00 73 1013.9
20260905012527 30 0.0 0.0 0.00 0.00 0.00 73 1013.9
20260905012027 30 0.0 0.0 0.00 0.00 0.00 72 1013.9
20260905011545 30 0.0 0.0 0.00 0.00 0.00 72 1013.9
20260905011027 30 0.0 0.0 0.00 0.00 0.00 72 1013.9
20260905010526 30 0.0 0.0 0.00 0.00 0.00 71 1014.0
20260905010043 30 0.0 0.0 0.00 0.00 0.00 71 1014.0
20260905005526 30 0.0 0.0 0.00 0.00 0.00 70 1013.8
20260905005025 31 0.0 0.0 0.00 0.00 0.00 69 1013.7
20260905004543 31 0.0 0.0 0.00 0.00 0.00 68 1013.7
20260905004025 31 0.0 0.0 0.00 0.00 0.00 68 1013.7
20260905003529 31 0.0 0.0 0.00 0.00 0.00 68 1013.7
20260905003048 31 0.0 0.0 0.00 0.00 0.00 67 1013.7
20260905002524 31 0.0 0.0 0.00 0.00 0.00 67 1013.7
20260905002027 32 0.0 0.0 0.00 0.00 0.00 65 1013.7
20260905001544 32 0.0 0.0 0.00 0.00 0.00 65 1013.7
20260905001025 32 0.0 0.0 0.00 0.00 0.00 65 1013.7
20260905000526 32 0.0 0.0 0.00 0.00 0.00 64 1013.7
20260905000044 32 0.0 0.0 0.00 0.00 0.00 63 1013.7
20260904235526 33 0.0 0.0 0.00 0.00 0.00 61 1013.8
20260904235025 33 0.0 0.0 0.00 0.00 0.00 59 1013.8
20260904234544 33 0.0 0.0 0.00 0.00 0.00 59 1013.8
20260904234029 33 0.0 0.0 0.00 0.00 0.00 60 1013.8
20260904233526 33 0.0 0.0 0.00 0.00 0.00 60 1013.8
20260904233052 33 0.0 0.0 0.00 0.00 0.00 58 1013.9
20260904232529 33 0.0 0.0 0.00 0.00 0.00 56 1013.9
20260904232026 33 0.0 0.0 0.00 0.00 0.00 55 1013.8
20260904231547 33 0.0 0.0 0.00 0.00 0.00 56 1013.8
20260904231026 33 0.0 0.0 0.00 0.00 0.00 55 1013.7
20260904230527 33 0.0 0.0 0.00 0.00 0.00 53 1013.8
20260904230045 34 0.0 0.0 0.00 0.00 0.00 54 1013.8
20260904225526 34 0.0 0.0 0.00 0.00 0.00 52 1013.7
20260904225025 34 0.0 0.0 0.00 0.00 0.00 53 1013.7